Погода в Оханске

Погода в Оханске : погода сейчас, прогноз погоды и архив. Всё, что Вы хотите узнать о погоде в Оханске!

Поиск расширенной информации на нашем сайте:

Другие новости

Новости СМИ2

Главная страница сайта

Новости сайта

03.07.2017

Напоминаем, что на нашем специализированном сайте Метеоцентр.Азия вы можете получить высокодетализированные автоматические прогнозы погоды по пунктам России, СНГ и мира в авиационном формате (включающие направление и скорость ветра, видимость, явления погоды, количество и форму облачности, нижнюю и верхнюю границу облачности).

Рекомендуем: Детский трикотаж оптом из иваново valeriya-ivanovo.ru.

Погода в Оханске - сегодня

Время (UTC), дата Ветер
(°,м/с) 
Видим.   Явления Облачность Т
(°С)
Тd
(°С)
f(%) Тe
(°С)
Pmin
(гПа)
dP
(гПа)
Po
(мм)
O2
(г/м3)
Тmin Tmax R s Состояние
почвы
21 14.08.17 140 (ЮВ) 20000 м    ясно 
+11.8 +10.4 91 +15  1022.4  0.1  752  289           
00 15.08.17 160 (Ю) 0500 м  туман  ясно 
+12 +10.7 92 +15  1022.3  0.1  752  288           
06 15.08.17 160 (Ю) 20000 м  {туман}  8/4 600 м верхняя 
[Cu med, cong|Ci fib]
+18.2 +12.9 71 +25  1021.6  -0.3  752  281           
09 15.08.17 180 (Ю) 20000 м    8/6 600 м верхняя 
[Cu med, cong|Ci fib]
+21.3 +12.5 57 +26  1020.7  -0.3  751  278           
12 15.08.17 220 (ЮЗ) 20000 м    8/5 600 м верхняя 
[Cu med, cong|Ci fib]
+21.2 +12.6 58 +26  1020.3  -0.4  751  278           
18 15.08.17 250 (З) 20000 м    8/5 2000 м средняя, верхняя 
[Ac trans|Ci fib]
+16.9 +12.2 74 +22  1021  0.3  751  283           
21 15.08.17 250 (З) 20000 м    8/0 верхняя 
[Ci fib]
+14.7 +12.1 84 +20  1021.4  0.3  752  285           
00 16.08.17 320 (СЗ) 20000 м    9/9 2000 м средняя 
[Ac As]
+15.9 +14 88 +24  1022.3  752  284           
06 16.08.17 030 (СВ) 20000 м    3/3 600 м 
[Cu med, cong]
+19.4 +10.8 57 +22  1025.1  1.3  754  282           
09 16.08.17 350 (С) 20000 м    4/4 600 м 
[Cu med, cong]
+21.8 +6.8 38 +22  1025.6  0.6  755  281           
12 16.08.17 320 (СЗ) 20000 м    4/4 600 м 
[Cu med, cong]
+22 +7.1 38 +22  1025.9  0.3  755  280           
15 16.08.17 360 (С) 20000 м    ясно 
+19.9 +6.7 42 +21  1026.1  0.1  755  283    +22.3       
18 16.08.17 330 (СЗ) 20000 м    ясно 
+14.9 +8.4 65 +16  1027.3  0.8  756  287           
21 16.08.17 260 (З) 20000 м    ясно 
+11.1 +8.2 82 +12  1028.1  0.6  756  291           
00 17.08.17 250 (З) 20000 м    ясно 
+9.4 +7.5 88 +9  1028.8  0.5  757  293           
06 17.08.17 300 (СЗ) 20000 м    3/0 верхняя 
[Ci fib]
+18.7 +9 53 +20  1028.7  0.3  757  284           
09 17.08.17 320 (СЗ) 20000 м    8/5 1000 м верхняя 
[Cu med, cong|Ci sp]
+21.5 +6.6 38 +22  1028.2  -0.3  757  282           
12 17.08.17 340 (С) 20000 м    5/3 600 м средняя 
[Cu med, cong|Ac trans]
+21.2 +8.6 44 +21  1027.6  -0.6  756  281           
18 17.08.17 020 (С) 20000 м    ясно 
+16.1 +9.4 64 +17  1028.4  0.8  757  286           
21 17.08.17 тихо ()   20000 м    ясно 
+11.5 +9.8 89 +12  1029.2  0.5  757  291           
00 18.08.17 тихо ()   1000 м  дымка  10/10 300 м 
[St]
+9.9 +8.6 92 +10  1029.4  757  293           
06 18.08.17 170 (Ю) 20000 м  {туман}  8/0 верхняя 
[Ci fib]
+16.7 +10.6 67 +20  1029.2  0.1  757  286           
09 18.08.17 340 (С) 20000 м    6/4 1000 м верхняя 
[Cu med, cong|Ci fib]
+21.2 +6.9 40 +21  1028.4  -0.5  757  282           
12 18.08.17 250 (З) 20000 м    6/5 1000 м верхняя 
[Cu med, cong|Ci fib]
+21.8 +6.7 38 +22  1026.8  -1.6  756  281           
18 18.08.17 190 (Ю) 20000 м    8/4 600 м кучево-дожд., средняя 
[Cb cap|Ac trans]
+16.1 +10.3 68 +18  1026.3  0.1  755  285           
Время (UTC), дата Ветер
(°,м/с) 
Видим.   Явления Облачность Т
(°С)
Тd
(°С)
f(%) Тe
(°С)
Pmin
(гПа)
dP
(гПа)
Po
(мм)
O2
(г/м3)
Тmin Tmax R s Состояние
почвы

Для получения пояснительной информации подведите курсор к названию столбца.

ПОГОДА в Оханске - архив

Всё, что Вы хотите узнать о погоде в Оханске - удобно и подробно!

Выберите нужную дату (начиная с 1 января 2015* года) и нажмите кнопку "Найти".
Будут отображены архивные сводки погоды по пункту Оханск, начиная с указанной даты.


Отображать данные в формате CSV (для использования в таблицах Excel)


Внимание! Наш архив погоды предназначен исключительно для личного некоммерческого использования в познавательных целях. Если Вам необходимы официальные справки о состоянии погоды (для производственных, юридических, коммерческих и т.п. целей), обращайтесь в органы Росгидромета.

*Примечание: данная дата относится к архиву по метеостанциям СССР (Россия, СНГ, Балтия).
Архив по метеостанциям Зарубежной Европы и Азии (кроме Китая) хранится 10 дней, по другим регионам земного шара (Китай, Африка, Америка, Австралия, Океания) - 1 день.

Оханск - район местоположения метеостанции


Название, широта, долгота, высота метеостанции:
Оханск 57.7°ш. 55.4°д. 163 м над ур. моря [Российская Федерация]

Дополнительная информация

В oтличие oт бoльшинства пoгoдных сайтoв мы публикуем пoдрoбную метеoинфoрмацию в детальнoм прoфессиoнальнoм фoрмате.

Характеристики температуры и влажнoсти вoздуха измеряются на высoте 2 м в тени вдали oт зданий и деревьев.
Скoрoсть ветра измеряется на высoте 10 м (на урoвне рoста челoвека скoрoсть ветра ниже в 1.5-2 раза). Если метеoстанция нахoдится в гoрoде или в лесу, тo скoрoсть ветра занижена на 2-4 м/с пo сравнению с oткрытым местoм. Скoрoсть ветра над акватoриями крупных рек и oзёр, а также на вершинах хoлмoв на 2-5 м/с выше, чем в oбычных услoвиях.
Атмoсфернoе давление в разных тoчках местнoсти мoжет значительнo oтличаться oт давления на метеoстанции, в зависимoсти oт услoвий рельефа (при пoдъёме на 10 м давление пoнижается примернo на 1 мм рт.ст.).